Anchorage Merrill, AK

4:55 AM AKST on January 16, 2018 (GMT -0900)
Merrill

Weather History for PAMR - February, 2013

Change the Weather History Date:

Sunday, February 17, 2013

  Actual Average Record
Temperature  
Mean Temperature 22 °F -  
Max Temperature 26 °F 28 °F 46 °F (2015)
Min Temperature 17 °F 15 °F 10 °F (2014)
Degree Days  
Heating Degree Days 44    
Moisture  
Dew Point 19 °F    
Average Humidity 86    
Maximum Humidity 100    
Minimum Humidity 62    
Precipitation  
Precipitation 0.09 in - - ()
Snow  
Snow 0.00 in - - ()
Snow Depth 11.00 in    
Sea Level Pressure  
Sea Level Pressure 29.66 in    
Wind  
Wind Speed 8 mph (North)    
Max Wind Speed 13 mph    
Max Gust Speed 17 mph    
Visibility 6 miles    
Events Snow    
Averages and records for this station are not official NWS values.
T = Trace of Precipitation, MM = Missing Value Source: NWS Daily Summary

Daily Weather History Graph

Daily Weather History Graph

Search for Another Location

Airport or City:

Trip Planner

Search our weather history database for the weather conditions in past years. The results will help you decide how hot, cold, wet, or windy it might be!

Date:

Astronomy

Feb. 17, 2013 Rise Set
Actual Time 8:34 AM AKST 5:53 PM AKST
Civil Twilight 7:49 AM AKST 6:38 PM AKST
Nautical Twilight 6:59 AM AKST 7:28 PM AKST
Astronomical Twilight 6:09 AM AKST 8:18 PM AKST
Moon 10:17 AM AKST (2/17) 3:11 AM AKST (2/17)
Length of Visible Light 10h 48m
Length of Day
9h 18m
Waxing Crescent, 50% of the Moon is Illuminated
Feb 17
Waxing Crescent
Feb 25
Full
Mar 4
Last Quarter
Mar 11
New
Mar 19
First Quarter

Hourly Weather History & Observations

Time (AKST) Temp. Windchill Dew Point Humidity Pressure Visibility Wind Dir Wind Speed Gust Speed Precip Events Conditions
12:53 AM 19.9 °F 8.6 °F 16.0 °F 85% 29.78 in 10.0 mi North 10.4 mph - 0.00 in Snow Light Snow
1:53 AM 19.9 °F 12.1 °F 16.0 °F 85% 29.77 in 9.0 mi North 5.8 mph - 0.00 in Snow Light Snow
2:09 AM 19.4 °F 10.4 °F 15.8 °F 86% 29.75 in 9.0 mi NNE 6.9 mph - 0.00 in Snow Light Snow
2:22 AM 19.4 °F 10.4 °F 17.6 °F 93% 29.75 in 9.0 mi North 6.9 mph - 0.00 in Snow Light Snow
2:46 AM 19.4 °F 9.5 °F 17.6 °F 93% 29.74 in 7.0 mi NNE 8.1 mph - 0.00 in Snow Light Snow
2:50 AM 19.4 °F 9.5 °F 17.6 °F 93% 29.73 in 6.0 mi NNE 8.1 mph - 0.00 in Snow Light Snow
3:53 AM 19.9 °F 10.1 °F 17.1 °F 89% 29.72 in 8.0 mi North 8.1 mph - 0.00 in Snow Light Snow
4:36 AM 19.4 °F 9.5 °F 17.6 °F 93% 29.69 in 9.0 mi North 8.1 mph - 0.00 in Snow Light Snow
4:53 AM 19.9 °F 12.1 °F 16.0 °F 85% 29.70 in 9.0 mi North 5.8 mph - 0.00 in Snow Light Snow
5:53 AM 19.9 °F 11.1 °F 17.1 °F 89% 29.68 in 9.0 mi North 6.9 mph - 0.00 in   Overcast
6:26 AM 19.4 °F 11.5 °F 17.6 °F 93% 29.66 in 10.0 mi North 5.8 mph - N/A   Overcast
6:53 AM 19.9 °F 12.1 °F 17.1 °F 89% 29.67 in 10.0 mi North 5.8 mph - N/A   Overcast
7:53 AM 19.9 °F 13.4 °F 17.1 °F 89% 29.64 in 10.0 mi North 4.6 mph - N/A   Overcast
8:53 AM 21.0 °F 13.4 °F 17.1 °F 85% 29.63 in 10.0 mi NNE 5.8 mph - N/A   Overcast
9:53 AM 21.9 °F 12.5 °F 18.0 °F 85% 29.62 in 10.0 mi NNE 8.1 mph - N/A   Overcast
10:53 AM 21.9 °F 13.4 °F 18.0 °F 85% 29.61 in 10.0 mi North 6.9 mph - N/A   Overcast
11:53 AM 23.0 °F 13.1 °F 19.0 °F 85% 29.60 in 10.0 mi North 9.2 mph - N/A   Mostly Cloudy
12:53 PM 24.1 °F 15.2 °F 19.9 °F 84% 29.61 in 10.0 mi North 8.1 mph - N/A   Mostly Cloudy
1:53 PM 24.1 °F 15.2 °F 19.9 °F 84% 29.60 in 6.0 mi NNE 8.1 mph - 0.00 in Snow Light Snow
2:08 PM 24.8 °F 15.3 °F 21.2 °F 86% 29.58 in 3.0 mi North 9.2 mph - 0.00 in Snow Light Snow
2:53 PM 25.0 °F 14.8 °F 21.9 °F 88% 29.58 in 3.0 mi North 10.4 mph - 0.00 in Snow Light Snow
3:39 PM 26.6 °F 19.1 °F 21.2 °F 80% 29.57 in 9.0 mi North 6.9 mph - 0.00 in   Overcast
3:53 PM 26.1 °F 17.6 °F 21.9 °F 84% 29.58 in 5.0 mi North 8.1 mph - 0.00 in Snow Light Snow
4:17 PM 26.6 °F 18.2 °F 23.0 °F 86% 29.58 in 1.8 mi North 8.1 mph - 0.00 in Snow Light Snow
4:53 PM 26.1 °F 17.6 °F 23.0 °F 88% 29.60 in 1.8 mi North 8.1 mph - 0.00 in   Overcast
5:00 PM 26.6 °F 19.1 °F 23.0 °F 86% 29.59 in 10.0 mi North 6.9 mph - N/A   Overcast
5:08 PM 26.6 °F 18.2 °F 23.0 °F 86% 29.59 in 4.0 mi North 8.1 mph - 0.00 in Snow Light Snow
5:17 PM 26.6 °F 18.2 °F 24.8 °F 93% 29.59 in 1.8 mi North 8.1 mph - 0.00 in Snow Light Snow
5:51 PM 24.8 °F 14.6 °F 23.0 °F 93% 29.60 in 1.5 mi North 10.4 mph - 0.00 in Snow Light Snow
5:53 PM 25.0 °F 13.6 °F 23.0 °F 92% 29.61 in 1.8 mi North 12.7 mph - 0.00 in Snow Light Snow
6:01 PM 24.8 °F 14.6 °F 23.0 °F 93% 29.60 in 1.8 mi North 10.4 mph 17.3 mph 0.00 in Snow Light Snow
6:53 PM 25.0 °F 15.5 °F 24.1 °F 96% 29.62 in 1.8 mi North 9.2 mph - 0.01 in Snow Light Snow
7:06 PM 24.8 °F 16.1 °F 24.8 °F 100% 29.62 in 1.0 mi North 8.1 mph - 0.01 in Snow Light Snow
7:13 PM 24.8 °F 15.3 °F 23.0 °F 93% 29.62 in 0.8 mi North 9.2 mph - 0.01 in Snow Light Snow
7:53 PM 24.1 °F 14.4 °F 21.0 °F 88% 29.65 in 0.8 mi North 9.2 mph - 0.04 in Snow Light Snow
8:53 PM 21.0 °F 11.4 °F 18.0 °F 88% 29.68 in 0.8 mi North 8.1 mph - 0.02 in Snow Light Snow
9:00 PM 21.2 °F 13.6 °F 17.6 °F 86% 29.67 in 1.8 mi North 5.8 mph - 0.01 in Snow Light Snow
9:53 PM 19.0 °F 7.5 °F 14.0 °F 81% 29.72 in 1.8 mi NNE 10.4 mph - 0.01 in Snow Light Snow
10:08 PM 19.4 °F 9.5 °F 12.2 °F 74% 29.72 in 2.5 mi North 8.1 mph - 0.00 in Snow Light Snow
10:53 PM 19.0 °F 10.0 °F 10.9 °F 71% 29.76 in 2.5 mi North 6.9 mph - 0.01 in Snow Light Snow
11:31 PM 17.6 °F 8.2 °F 8.6 °F 68% 29.77 in 6.0 mi NNE 6.9 mph - 0.00 in Snow Light Snow
11:53 PM 18.0 °F 7.7 °F 7.0 °F 62% 29.79 in 10.0 mi NNE 8.1 mph - 0.00 in   Mostly Cloudy